This demonstration page uses our WeatherBlox Daily Observations layout. Learn more.

Left ArrowRight Arrow

Hourly Observations for September 10, 2017

Temp ( °F °C ) Dew Point ( °F °C ) Humidity (%) Winds ( mph kmh ) Pressure ( in mb ) Visibility ( mi km ) Precip ( " mm )
12:51 am 00:51 Clear 75 23.9 58 14.4 55 55 ESE 12 19 29.89 1012 10 16.0934 0 0
1:51 am 01:51 Clear 75 23.9 58 14.4 55 55 SE 10 17 29.89 1012 10 16.0934 0 0
2:51 am 02:51 Clear 73 22.8 58 14.4 59 59 ESE 12 19 29.88 1012 10 16.0934 0 0
3:51 am 03:51 Clear 72 22.2 58 14.4 61 61 ESE 9 15 29.89 1012 10 16.0934 0 0
4:51 am 04:51 Clear 72 22.2 57 13.9 59 59 SE 12 19 29.91 1013 10 16.0934 0 0
5:51 am 05:51 Clear 71 21.7 56 13.3 59 59 SE 8 13 29.94 1014 10 16.0934 0 0
6:51 am 06:51 Sunny 72 22.2 58 14.4 61 61 SE 9 15 29.95 1014 10 16.0934 0 0
7:51 am 07:51 Sunny 77 25 57 13.9 50 50 SE 10 17 29.96 1015 10 16.0934 0 0
8:51 am 08:51 Sunny 82 27.8 56 13.3 41 41 SE 12 19 29.96 1015 10 16.0934 0 0
9:51 am 09:51 Sunny 84 28.9 54 12.2 36 36 SSE 9 15 29.95 1014 10 16.0934 0 0
10:51 am 10:51 Sunny 89 31.7 52 11.1 28 28 SSE 9 15 29.93 1014 10 16.0934 0 0
11:51 am 11:51 Sunny 91 32.8 53 11.7 27 27 S 12 19 29.91 1013 10 16.0934 0 0
12:51 pm 12:51 Sunny 96 35.6 49 9.4 20 20 SE 13 20 29.88 1012 10 16.0934 0 0
1:51 pm 13:51 Sunny 95 35 49 9.4 21 21 VRB 5 7 29.85 1011 10 16.0934 0 0
2:51 pm 14:51 Mostly Sunny 96 35.6 47 8.3 19 19 S 12 19 29.83 1010 10 16.0934 0 0
3:51 pm 15:51 Mostly Sunny 96 35.6 45 7.2 17 17 SSE 13 20 29.82 1010 10 16.0934 0 0
4:51 pm 16:51 Sunny 96 35.6 44 6.7 17 17 ESE 13 20 29.81 1010 10 16.0934 0 0
5:51 pm 17:51 Sunny 93 33.9 45 7.2 19 19 SSE 8 13 29.82 1010 10 16.0934 0 0
6:51 pm 18:51 Clear 90 32.2 45 7.2 21 21 SE 12 19 29.83 1010 10 16.0934 0 0
7:51 pm 19:51 Clear 86 30 45 7.2 24 24 ESE 7 11 29.85 1011 10 16.0934 0 0
8:51 pm 20:51 Clear 84 28.9 46 7.8 27 27 E 9 15 29.86 1011 10 16.0934 0 0
9:51 pm 21:51 Clear 82 27.8 47 8.3 29 29 E 8 13 29.87 1012 10 16.0934 0 0
10:51 pm 22:51 Clear 80 26.7 48 8.9 33 33 SE 7 11 29.87 1012 10 16.0934 0 0
11:51 pm 23:51 Clear 77 25 47 8.3 35 35 SE 6 9 29.87 1012 10 16.0934 0 0

Powered by AerisWeather